Location: Roland
(31.1349°N, 85.4372°W)
Time: 14:56:08
(UTC+00:00)

Explorer 11/Cluster Stage 4 - All Passes

Search period start: 11 April 2021 00:00
Search period end: 21 April 2021 00:00
Orbit: 467 x 1257 km, 28.8° (Epoch: 11 April)

Date Brightness Start Highest point End Pass type
(mag) Time Alt. Az. Time Alt. Az. Time Alt. Az.
11 Apr - 13:24:10 10° SSE 13:25:04 10° SE 13:25:59 10° SE daylight
11 Apr - 15:07:26 10° SW 15:12:47 37° SSE 15:19:16 10° E daylight
11 Apr - 16:54:51 10° WSW 17:01:27 69° S 17:09:19 10° E daylight
11 Apr - 18:43:17 10° W 18:50:42 74° S 18:58:57 10° ESE daylight
11 Apr - 20:32:18 10° W 20:39:58 50° SSW 20:47:48 10° SE daylight
11 Apr - 22:22:42 10° WSW 22:28:45 23° SSW 22:34:36 10° SSE daylight
12 Apr - 13:12:02 10° SSE 13:13:55 12° SE 13:15:56 10° ESE daylight
12 Apr - 14:56:25 10° SW 15:01:39 40° SSE 15:08:04 10° E daylight
12 Apr - 16:43:55 10° WSW 16:50:18 71° S 16:58:03 10° E daylight
12 Apr - 18:32:18 10° W 18:39:31 71° S 18:47:41 10° ESE daylight
12 Apr - 20:21:17 10° W 20:28:43 46° SSW 20:36:28 10° SE daylight
12 Apr - 22:11:54 10° WSW 22:17:28 20° SSW 22:22:55 10° SSE daylight
13 Apr - 13:00:24 10° S 13:02:47 13° SE 13:05:23 10° ESE daylight
13 Apr - 14:45:27 10° SW 14:50:32 43° SSE 14:56:51 10° E daylight
13 Apr - 16:33:01 10° WSW 16:39:11 72° S 16:46:46 10° E daylight
13 Apr - 18:21:20 10° W 18:28:20 68° S 18:36:24 10° ESE daylight
13 Apr - 20:10:17 10° W 20:17:28 42° SSW 20:25:04 10° SE daylight
13 Apr - 22:01:15 10° WSW 22:06:10 17° SSW 22:11:05 10° S daylight
14 Apr - 12:49:00 10° S 12:51:41 15° SSE 12:54:39 10° ESE daylight
14 Apr - 14:34:31 10° SW 14:39:27 46° SSE 14:45:38 10° E daylight
14 Apr - 16:22:07 10° W 16:28:05 73° S 16:35:29 10° E daylight
14 Apr - 18:10:24 10° W 18:17:09 65° S 18:25:05 10° ESE daylight
14 Apr - 19:59:21 10° W 20:06:12 37° SSW 20:13:36 10° SE daylight
14 Apr - 21:50:50 10° WSW 21:54:54 15° SSW 21:59:00 10° S daylight
15 Apr - 12:37:44 10° S 12:40:36 17° SSE 12:43:50 10° ESE daylight
15 Apr - 14:23:37 10° WSW 14:28:24 49° SSE 14:34:25 10° E daylight
15 Apr - 16:11:16 10° W 16:17:01 73° S 16:24:12 10° E daylight
15 Apr - 17:59:29 10° W 18:06:00 60° SSW 18:13:45 10° ESE daylight
15 Apr - 19:48:28 10° W 19:54:58 33° SSW 20:02:04 10° SE daylight
15 Apr - 21:40:49 10° SW 21:43:39 12° SSW 21:46:31 10° SSW daylight
16 Apr - 12:26:32 10° SSW 12:29:32 19° SSE 12:32:58 10° ESE daylight
16 Apr - 14:12:45 10° WSW 14:17:23 53° SSE 14:23:13 10° E daylight
16 Apr - 16:00:26 10° W 16:05:57 72° S 16:12:56 10° E daylight
16 Apr - 17:48:36 10° W 17:54:51 56° SSW 18:02:22 10° ESE daylight
16 Apr - 19:37:40 10° W 19:43:44 29° SSW 19:50:28 10° SSE daylight
17 Apr - 12:15:25 10° SSW 12:18:31 21° SSE 12:22:03 10° ESE daylight
17 Apr - 14:01:55 10° WSW 14:06:23 56° SSE 14:12:01 10° E daylight
17 Apr - 15:49:37 10° W 15:54:55 71° S 16:01:39 10° E daylight
17 Apr - 17:37:45 10° W 17:43:44 50° SSW 17:50:59 10° ESE daylight
17 Apr - 19:26:57 10° WSW 19:32:32 25° SSW 19:38:45 10° SSE daylight
18 Apr - 12:04:21 10° SSW 12:07:31 23° SSE 12:11:07 10° ESE daylight
18 Apr - 13:51:06 10° WSW 13:55:25 58° S 14:00:51 10° E daylight
18 Apr - 15:38:49 10° W 15:43:54 68° S 15:50:22 10° ESE daylight
18 Apr - 17:26:56 10° W 17:32:37 45° SSW 17:39:32 10° SE daylight
18 Apr - 19:16:21 10° WSW 19:21:22 21° SSW 19:26:55 10° SSE daylight
19 Apr - 11:53:20 10° SW 11:56:32 26° SSE 12:00:12 10° E daylight
19 Apr - 13:40:18 10° WSW 13:44:29 61° S 13:49:41 10° E daylight
19 Apr - 15:28:01 10° W 15:32:54 65° S 15:39:05 10° ESE daylight
19 Apr - 17:16:10 10° W 17:21:32 40° SSW 17:28:04 10° SE daylight
19 Apr - 19:05:55 10° WSW 19:10:12 18° SSW 19:14:57 10° SSE daylight
20 Apr - 11:42:20 10° SW 11:45:36 29° SSE 11:49:15 10° E daylight
20 Apr - 13:29:31 10° WSW 13:33:33 63° S 13:38:32 10° E daylight
20 Apr - 15:17:15 10° W 15:21:55 61° S 15:27:49 10° ESE daylight
20 Apr - 17:05:27 10° W 17:10:28 34° SSW 17:16:33 10° SE daylight
20 Apr - 18:55:43 10° WSW 18:59:05 14° SSW 19:02:42 10° S daylight
